Weather History for San Diego, CA

Change the Weather History Date:

Thursday, November 15, 2012

  Actual Average Record
Temperature  
Mean Temperature 62 °F 62 °F  
Max Temperature 67 °F 69 °F 89 °F (1940)
Min Temperature 56 °F 54 °F 38 °F (1964)
Degree Days  
Heating Degree Days 3 4  
Month to date heating degree days 42 42  
Since 1 July heating degree days 46 63  
Cooling Degree Days 0 0  
Month to date cooling degree days 15 11  
Year to date cooling degree days 898 718  
Growing Degree Days 10 (Base 50)    
Moisture  
Dew Point 50 °F    
Average Humidity 68    
Maximum Humidity 93    
Minimum Humidity 42    
Precipitation  
Precipitation T in 0.03 in 1.07 in (1965)
Month to date precipitation 0.18 0.42  
Year to date precipitation 4.34 8.22  
Since 1 July precipitation 0.88 1.19  
Snow  
Snow 0.00 in - - ()
Month to date snowfall 0.0  
Year to date snowfall 0.0  
Since 1 July snowfall 0.0  
Snow Depth 0.00 in    
Sea Level Pressure  
Sea Level Pressure 30.08 in    
Wind  
Wind Speed 3 mph (North)    
Max Wind Speed 16 mph    
Max Gust Speed 20 mph    
Visibility 6 miles    
Events Fog    
T = Trace of Precipitation, MM = Missing Value Source: NWS Daily Summary

Daily Weather History Graph

Daily Weather History Graph

Search for Another Location

Airport:

Trip Planner

Search our weather history database for the weather conditions in past years. The results will help you decide how hot, cold, wet, or windy it might be!

Date:

Astronomy

Nov. 15, 2012 Rise Set
Actual Time 6:19 AM PST 4:47 PM PST
Civil Twilight 5:53 AM PST 5:13 PM PST
Nautical Twilight 5:23 AM PST 5:43 PM PST
Astronomical Twilight 4:54 AM PST 6:12 PM PST
Moon 8:16 AM PST (11/15) 6:47 PM PST (11/15)
Length of Visible Light 11h 20m
Length of Day
10h 27m
Waxing Crescent, 5% of the Moon is Illuminated
Nov 15
Waxing Crescent
Nov 20
First Quarter
Nov 28
Full
Dec 6
Last Quarter
Dec 13
New

Hourly Weather History & Observations

Time (PST) Temp. Dew Point Humidity Pressure Visibility Wind Dir Wind Speed Gust Speed Precip Events Conditions
12:22 AM 59.0 °F 57.2 °F 94% 30.05 in 0.5 mi Calm Calm - N/A Fog Fog
12:29 AM 57.2 °F 55.4 °F 94% 30.04 in 0.5 mi Calm Calm - N/A Fog Fog
12:37 AM 59.0 °F 55.4 °F 88% 30.04 in 2.0 mi Calm Calm - N/A   Scattered Clouds
12:49 AM 57.2 °F 55.4 °F 94% 30.04 in 2.5 mi Calm Calm - N/A   Partly Cloudy
12:51 AM 57.9 °F 55.0 °F 90% 30.04 in 2.5 mi Calm Calm - N/A   Partly Cloudy
1:00 AM 57.2 °F 55.4 °F 94% 30.04 in 2.5 mi Calm Calm - N/A   Partly Cloudy
1:31 AM 57.2 °F 53.6 °F 88% 30.05 in 2.5 mi Calm Calm - N/A   Scattered Clouds
1:51 AM 57.9 °F 55.0 °F 90% 30.06 in 2.0 mi Calm Calm - N/A   Scattered Clouds
2:51 AM 57.9 °F 55.0 °F 90% 30.04 in 2.0 mi Calm Calm - N/A   Scattered Clouds
3:05 AM 57.2 °F 53.6 °F 88% 30.04 in 2.0 mi Calm Calm - N/A   Scattered Clouds
3:36 AM 55.4 °F 53.6 °F 94% 30.05 in 2.0 mi Calm Calm - N/A   Scattered Clouds
3:51 AM 55.9 °F 52.0 °F 87% 30.06 in 2.5 mi Calm Calm - N/A   Scattered Clouds
4:16 AM 57.2 °F 46.4 °F 67% 30.07 in 3.0 mi Calm Calm - N/A   Haze
4:51 AM 57.9 °F 46.0 °F 65% 30.06 in 5.0 mi Calm Calm - N/A   Haze
5:51 AM 57.9 °F 45.0 °F 62% 30.05 in 10.0 mi Calm Calm - N/A   Scattered Clouds
6:51 AM 57.9 °F 45.0 °F 62% 30.05 in 10.0 mi Calm Calm - N/A   Mostly Cloudy
7:51 AM 59.0 °F 50.0 °F 72% 30.08 in 8.0 mi Calm Calm - N/A   Mostly Cloudy
8:51 AM 60.1 °F 48.0 °F 64% 30.12 in 8.0 mi NW 3.5 mph - N/A   Overcast
9:51 AM 62.1 °F 48.9 °F 62% 30.13 in 8.0 mi Calm Calm - N/A   Overcast
10:51 AM 64.9 °F 46.0 °F 50% 30.12 in 8.0 mi NE 3.5 mph - N/A   Overcast
11:51 AM 64.0 °F 45.0 °F 50% 30.14 in 8.0 mi SSW 5.8 mph - N/A   Overcast
12:51 PM 63.0 °F 50.0 °F 63% 30.13 in 7.0 mi SSE 8.1 mph - N/A   Overcast
1:51 PM 64.0 °F 55.9 °F 75% 30.09 in 10.0 mi SE 15.0 mph - 0.00 in   Mostly Cloudy
2:51 PM 66.0 °F 43.0 °F 43% 30.09 in 10.0 mi ESE 8.1 mph - N/A   Mostly Cloudy
3:51 PM 66.9 °F 39.9 °F 37% 30.06 in 10.0 mi Calm Calm - 0.00 in   Mostly Cloudy
4:51 PM 66.0 °F 39.0 °F 37% 30.06 in 10.0 mi WNW 4.6 mph - N/A   Mostly Cloudy
5:51 PM 64.9 °F 43.0 °F 45% 30.06 in 10.0 mi Calm Calm - N/A   Mostly Cloudy
6:51 PM 64.0 °F 50.0 °F 60% 30.06 in 10.0 mi NW 3.5 mph - N/A   Mostly Cloudy
7:51 PM 63.0 °F 55.0 °F 75% 30.08 in 10.0 mi NW 4.6 mph - N/A   Mostly Cloudy
8:51 PM 62.1 °F 53.1 °F 72% 30.10 in 10.0 mi North 3.5 mph - N/A   Mostly Cloudy
9:51 PM 62.1 °F 54.0 °F 75% 30.11 in 10.0 mi NNE 6.9 mph - N/A   Mostly Cloudy
10:51 PM 62.1 °F 51.1 °F 67% 30.11 in 10.0 mi Calm Calm - N/A   Mostly Cloudy
11:51 PM 63.0 °F 45.0 °F 52% 30.10 in 10.0 mi Calm Calm - N/A   Mostly Cloudy